QPF
0.02 0.04 0.08 0.09 0.13 0.15 0.12 0.05 0.01 0.00 0.01 0.01 0.01 0.01 0.02 0.03 0.04 0.06 0.13 0.15 0.09 0.04 0.06 0.06 0.05 0.03 0.03 0.04 0.05 0.04 0.03 0.03 0.03 0.03 0.04 0.05 0.06 0.05 0.05 0.06 0.07 0.08 0.09 0.10 0.10 0.11 0.14 0.14 0.12
0.05 0.07 0.16 0.15 0.17 0.11 0.06 0.02 0.01 0.01 0.01 0.00 0.00 0.00 0.01 0.02 0.04 0.07 0.11 0.08 0.05 0.04 0.04 0.04 0.05 0.04 0.03 0.03 0.03 0.03 0.03 0.03 0.03 0.03 0.03 0.04 0.04 0.04 0.05 0.06 0.05 0.07 0.08 0.10 0.10 0.09 0.08 0.07 0.05
0.07 0.07 0.20 0.19 0.14 0.09 0.05 0.01 0.01 0.01 0.01 0.00 0.00 0.00 0.01 0.04 0.04 0.06 0.07 0.04 0.03 0.04 0.04 0.04 0.04 0.03 0.03 0.03 0.03 0.02 0.03 0.04 0.03 0.03 0.03 0.04 0.03 0.03 0.05 0.06 0.05 0.04 0.03 0.04 0.05 0.04 0.04 0.05 0.05
0.07 0.08 0.14 0.16 0.15 0.09 0.03 0.01 0.01 0.00 0.00 0.00 0.00 0.00 0.03 0.07 0.04 0.04 0.03 0.01 0.02 0.04 0.05 0.06 0.05 0.04 0.04 0.03 0.03 0.02 0.04 0.04 0.03 0.03 0.04 0.04 0.03 0.03 0.05 0.05 0.05 0.04 0.04 0.03 0.03 0.04 0.03 0.05 0.05
0.08 0.13 0.20 0.21 0.15 0.08 0.03 0.01 0.00 0.00 0.01 0.00 0.00 0.01 0.04 0.07 0.04 0.02 0.01 0.01 0.02 0.04 0.07 0.09 0.08 0.06 0.05 0.03 0.03 0.02 0.03 0.03 0.03 0.03 0.03 0.03 0.04 0.05 0.06 0.07 0.06 0.04 0.03 0.03 0.03 0.04 0.04 0.03 0.04
0.14 0.23 0.22 0.17 0.12 0.07 0.04 0.02 0.00 0.00 0.01 0.01 0.00 0.01 0.06 0.07 0.03 0.02 0.02 0.01 0.01 0.03 0.07 0.14 0.13 0.09 0.07 0.05 0.03 0.03 0.03 0.03 0.03 0.03 0.03 0.08 0.12 0.16 0.17 0.14 0.08 0.04 0.02 0.01 0.02 0.03 0.03 0.02 0.04
0.22 0.24 0.16 0.11 0.08 0.05 0.03 0.02 0.01 0.01 0.01 0.01 0.01 0.03 0.06 0.08 0.03 0.01 0.01 0.02 0.03 0.03 0.04 0.09 0.09 0.08 0.06 0.05 0.04 0.04 0.03 0.03 0.02 0.02 0.02 0.03 0.04 0.08 0.08 0.08 0.04 0.02 0.01 0.01 0.01 0.02 0.03 0.02 0.03
0.17 0.14 0.09 0.06 0.05 0.03 0.02 0.02 0.01 0.01 0.01 0.01 0.01 0.02 0.04 0.05 0.03 0.02 0.02 0.04 0.03 0.02 0.02 0.01 0.02 0.03 0.05 0.05 0.05 0.05 0.03 0.03 0.02 0.02 0.02 0.02 0.02 0.02 0.02 0.02 0.02 0.01 0.01 0.00 0.01 0.01 0.03 0.03 0.04
0.10 0.07 0.06 0.06 0.03 0.01 0.02 0.02 0.02 0.01 0.01 0.02 0.03 0.03 0.02 0.01 0.02 0.03 0.02 0.03 0.03 0.03 0.02 0.02 0.01 0.01 0.02 0.03 0.04 0.04 0.04 0.04 0.03 0.03 0.04 0.03 0.01 0.01 0.02 0.02 0.02 0.02 0.01 0.01 0.01 0.01 0.03 0.05 0.06
0.08 0.06 0.04 0.03 0.02 0.01 0.01 0.01 0.00 0.00 0.01 0.01 0.02 0.03 0.03 0.01 0.02 0.02 0.02 0.02 0.02 0.03 0.03 0.02 0.02 0.01 0.01 0.01 0.01 0.01 0.01 0.02 0.03 0.03 0.02 0.02 0.02 0.02 0.02 0.03 0.03 0.03 0.02 0.02 0.02 0.03 0.05 0.08 0.08
0.08 0.03 0.02 0.02 0.01 0.01 0.01 0.01 0.01 0.01 0.01 0.00 0.01 0.03 0.03 0.02 0.02 0.02 0.01 0.02 0.02 0.02 0.03 0.03 0.02 0.01 0.01 0.01 0.01 0.01 0.01 0.01 0.02 0.03 0.03 0.03 0.04 0.04 0.04 0.04 0.03 0.03 0.03 0.02 0.02 0.03 0.03 0.04 0.05
0.06 0.02 0.02 0.01 0.01 0.01 0.01 0.01 0.01 0.00 0.00 0.00 0.00 0.01 0.01 0.01 0.01 0.01 0.02 0.01 0.01 0.01 0.02 0.03 0.01 0.01 0.01 0.01 0.02 0.02 0.01 0.01 0.02 0.04 0.04 0.05 0.05 0.04 0.03 0.04 0.02 0.02 0.02 0.02 0.02 0.03 0.06 0.04 0.04
0.04 0.02 0.03 0.03 0.02 0.01 0.01 0.01 0.01 0.01 0.01 0.00 0.01 0.00 0.01 0.01 0.01 0.03 0.08 0.06 0.03 0.01 0.01 0.02 0.02 0.01 0.01 0.01 0.02 0.02 0.02 0.02 0.02 0.03 0.03 0.03 0.02 0.03 0.03 0.03 0.02 0.03 0.04 0.03 0.03 0.03 0.05 0.05 0.05
0.01 0.02 0.02 0.02 0.03 0.02 0.01 0.01 0.01 0.01 0.01 0.01 0.01 0.01 0.02 0.01 0.01 0.02 0.03 0.03 0.04 0.01 0.01 0.01 0.02 0.01 0.01 0.01 0.02 0.02 0.05 0.05 0.03 0.03 0.02 0.01 0.01 0.02 0.02 0.03 0.03 0.03 0.04 0.03 0.04 0.04 0.05 0.05 0.04
0.01 0.01 0.02 0.02 0.02 0.03 0.02 0.02 0.02 0.02 0.01 0.01 0.01 0.01 0.02 0.02 0.01 0.01 0.01 0.01 0.01 0.02 0.02 0.01 0.01 0.01 0.01 0.01 0.02 0.03 0.07 0.07 0.04 0.03 0.02 0.01 0.01 0.02 0.02 0.02 0.02 0.02 0.03 0.04 0.04 0.04 0.04 0.04 0.04
0.01 0.01 0.02 0.03 0.02 0.03 0.03 0.03 0.02 0.04 0.02 0.01 0.01 0.01 0.02 0.01 0.01 0.01 0.01 0.02 0.02 0.03 0.04 0.03 0.02 0.01 0.01 0.01 0.02 0.02 0.04 0.04 0.03 0.03 0.01 0.01 0.01 0.02 0.01 0.02 0.01 0.02 0.03 0.04 0.04 0.04 0.04 0.04 0.04
0.01 0.00 0.01 0.01 0.02 0.03 0.03 0.02 0.03 0.04 0.04 0.03 0.01 0.01 0.01 0.01 0.01 0.01 0.01 0.02 0.03 0.03 0.05 0.05 0.04 0.03 0.02 0.01 0.01 0.01 0.01 0.02 0.03 0.02 0.02 0.01 0.01 0.01 0.01 0.03 0.03 0.03 0.04 0.04 0.03 0.03 0.03 0.03 0.05
0.01 0.00 0.01 0.01 0.01 0.02 0.03 0.04 0.06 0.06 0.04 0.04 0.02 0.01 0.00 0.00 0.00 0.00 0.01 0.02 0.02 0.02 0.04 0.04 0.05 0.05 0.03 0.02 0.01 0.01 0.01 0.03 0.03 0.02 0.01 0.02 0.01 0.01 0.01 0.01 0.02 0.02 0.02 0.03 0.04 0.04 0.03 0.03 0.06
0.01 0.00 0.01 0.01 0.01 0.01 0.04 0.10 0.11 0.06 0.04 0.05 0.03 0.01 0.01 0.00 0.00 0.00 0.00 0.01 0.01 0.01 0.01 0.02 0.03 0.04 0.05 0.03 0.02 0.01 0.02 0.03 0.04 0.02 0.02 0.02 0.02 0.01 0.01 0.01 0.01 0.02 0.03 0.03 0.03 0.04 0.04 0.04 0.05
0.00 0.01 0.01 0.01 0.01 0.02 0.03 0.07 0.07 0.04 0.04 0.03 0.03 0.01 0.01 0.01 0.00 0.00 0.00 0.00 0.00 0.00 0.00 0.00 0.01 0.02 0.03 0.04 0.04 0.02 0.02 0.03 0.02 0.02 0.04 0.03 0.03 0.03 0.02 0.01 0.01 0.02 0.03 0.01 0.02 0.06 0.06 0.05 0.05
0.00 0.00 0.01 0.01 0.01 0.02 0.01 0.03 0.03 0.03 0.03 0.02 0.01 0.01 0.01 0.01 0.01 0.01 0.00 0.00 0.00 0.00 0.00 0.00 0.00 0.01 0.01 0.02 0.02 0.02 0.03 0.03 0.03 0.03 0.03 0.03 0.03 0.04 0.04 0.03 0.03 0.03 0.03 0.04 0.05 0.07 0.07 0.07 0.06
0.00 0.01 0.01 0.01 0.01 0.01 0.01 0.02 0.02 0.06 0.05 0.04 0.03 0.01 0.01 0.01 0.01 0.01 0.01 0.01 0.01 0.01 0.01 0.01 0.00 0.00 0.01 0.01 0.01 0.02 0.02 0.02 0.03 0.03 0.03 0.03 0.03 0.04 0.05 0.05 0.06 0.06 0.06 0.05 0.06 0.07 0.07 0.08 0.07
0.00 0.00 0.01 0.01 0.01 0.01 0.01 0.01 0.01 0.04 0.04 0.03 0.02 0.02 0.02 0.03 0.05 0.04 0.02 0.02 0.02 0.02 0.02 0.01 0.01 0.00 0.01 0.01 0.01 0.01 0.01 0.02 0.03 0.02 0.02 0.03 0.03 0.04 0.05 0.05 0.06 0.06 0.06 0.05 0.05 0.05 0.04 0.04 0.05
0.00 0.00 0.01 0.01 0.02 0.01 0.01 0.01 0.01 0.03 0.01 0.04 0.05 0.03 0.03 0.03 0.05 0.06 0.05 0.04 0.03 0.03 0.03 0.02 0.02 0.02 0.02 0.01 0.01 0.02 0.03 0.03 0.02 0.03 0.03 0.04 0.05 0.05 0.05 0.04 0.05 0.05 0.04 0.04 0.04 0.03 0.03 0.03 0.03
0.00 0.00 0.01 0.01 0.01 0.02 0.01 0.01 0.02 0.10 0.04 0.05 0.08 0.05 0.03 0.03 0.04 0.08 0.12 0.09 0.06 0.04 0.04 0.05 0.04 0.05 0.05 0.05 0.05 0.05 0.05 0.04 0.03 0.03 0.04 0.04 0.04 0.03 0.04 0.05 0.04 0.04 0.03 0.03 0.03 0.03 0.03 0.03 0.03
0.00 0.00 0.00 0.01 0.02 0.02 0.01 0.02 0.03 0.08 0.04 0.04 0.10 0.11 0.06 0.05 0.09 0.13 0.12 0.09 0.11 0.06 0.05 0.07 0.09 0.07 0.05 0.05 0.06 0.05 0.05 0.03 0.03 0.02 0.02 0.02 0.03 0.03 0.04 0.04 0.04 0.03 0.03 0.03 0.02 0.01 0.02 0.02 0.02
0.00 0.00 0.00 0.00 0.00 0.02 0.02 0.03 0.02 0.03 0.04 0.07 0.10 0.11 0.07 0.09 0.10 0.08 0.05 0.05 0.07 0.06 0.03 0.04 0.06 0.06 0.06 0.06 0.05 0.05 0.04 0.04 0.04 0.03 0.03 0.02 0.03 0.03 0.03 0.03 0.03 0.03 0.03 0.02 0.02 0.02 0.02 0.02 0.02
0.00 0.00 0.00 0.00 0.00 0.01 0.02 0.02 0.02 0.02 0.02 0.03 0.07 0.08 0.07 0.06 0.05 0.04 0.05 0.05 0.05 0.07 0.05 0.04 0.06 0.09 0.10 0.08 0.06 0.05 0.05 0.05 0.04 0.03 0.03 0.03 0.02 0.02 0.02 0.03 0.04 0.04 0.03 0.03 0.04 0.03 0.03 0.03 0.03
0.00 0.00 0.00 0.00 0.00 0.00 0.01 0.02 0.01 0.02 0.01 0.02 0.04 0.08 0.06 0.03 0.04 0.05 0.07 0.05 0.04 0.03 0.04 0.04 0.06 0.08 0.09 0.08 0.07 0.06 0.07 0.07 0.06 0.04 0.02 0.02 0.02 0.01 0.01 0.03 0.05 0.05 0.05 0.05 0.05 0.04 0.03 0.03 0.03
0.00 0.00 0.00 0.00 0.00 0.00 0.00 0.01 0.01 0.01 0.01 0.02 0.06 0.08 0.04 0.05 0.06 0.10 0.07 0.05 0.05 0.04 0.03 0.02 0.03 0.04 0.06 0.08 0.07 0.05 0.05 0.06 0.06 0.04 0.03 0.02 0.02 0.02 0.02 0.03 0.04 0.04 0.05 0.05 0.05 0.05 0.04 0.04 0.03
MSLP
1009.07 1009.99 1010.95 1011.81 1012.42 1012.70 1012.61 1012.22 1011.63 1010.99 1010.45 1010.12 1010.02 1010.12 1010.33 1010.52 1010.57 1010.41 1010.03 1009.47 1008.84 1008.28 1007.88 1007.73 1007.84 1008.16 1008.60 1009.07 1009.47 1009.78 1009.98 1010.13 1010.30 1010.56 1010.95 1011.49 1012.14 1012.84 1013.53 1014.14 1014.64 1015.04 1015.35 1015.62 1015.87 1016.13 1016.41 1016.69 1016.94
1009.49 1010.51 1011.51 1012.34 1012.87 1013.04 1012.84 1012.36 1011.71 1011.07 1010.56 1010.27 1010.24 1010.39 1010.63 1010.82 1010.84 1010.63 1010.19 1009.58 1008.92 1008.33 1007.94 1007.81 1007.95 1008.30 1008.78 1009.28 1009.71 1010.05 1010.28 1010.46 1010.65 1010.92 1011.31 1011.82 1012.43 1013.08 1013.72 1014.28 1014.76 1015.14 1015.45 1015.73 1016.00 1016.29 1016.59 1016.88 1017.14
1010.01 1011.09 1012.09 1012.85 1013.28 1013.33 1013.03 1012.48 1011.81 1011.19 1010.74 1010.54 1010.58 1010.78 1011.04 1011.22 1011.20 1010.93 1010.42 1009.77 1009.08 1008.48 1008.10 1007.99 1008.16 1008.54 1009.04 1009.56 1010.01 1010.37 1010.63 1010.84 1011.04 1011.32 1011.69 1012.17 1012.73 1013.32 1013.90 1014.41 1014.85 1015.21 1015.52 1015.82 1016.12 1016.44 1016.77 1017.08 1017.35
1010.55 1011.65 1012.59 1013.26 1013.58 1013.52 1013.14 1012.56 1011.91 1011.36 1011.01 1010.90 1011.02 1011.28 1011.55 1011.71 1011.65 1011.33 1010.78 1010.10 1009.39 1008.81 1008.44 1008.35 1008.54 1008.93 1009.43 1009.95 1010.40 1010.77 1011.03 1011.25 1011.47 1011.74 1012.10 1012.55 1013.07 1013.60 1014.12 1014.58 1014.98 1015.33 1015.64 1015.96 1016.28 1016.62 1016.97 1017.29 1017.57
1011.02 1012.09 1012.96 1013.53 1013.73 1013.59 1013.17 1012.60 1012.02 1011.57 1011.34 1011.34 1011.55 1011.86 1012.15 1012.29 1012.20 1011.86 1011.29 1010.60 1009.91 1009.36 1009.02 1008.95 1009.14 1009.52 1009.99 1010.47 1010.90 1011.23 1011.49 1011.70 1011.92 1012.20 1012.55 1012.98 1013.46 1013.95 1014.42 1014.84 1015.20 1015.53 1015.84 1016.16 1016.49 1016.84 1017.19 1017.52 1017.80
1011.35 1012.37 1013.15 1013.61 1013.73 1013.55 1013.14 1012.62 1012.14 1011.82 1011.72 1011.84 1012.13 1012.49 1012.79 1012.93 1012.83 1012.48 1011.93 1011.28 1010.64 1010.14 1009.84 1009.79 1009.97 1010.30 1010.72 1011.13 1011.49 1011.77 1011.99 1012.19 1012.40 1012.68 1013.03 1013.45 1013.91 1014.38 1014.81 1015.19 1015.53 1015.83 1016.12 1016.42 1016.74 1017.08 1017.42 1017.73 1017.99
1011.53 1012.47 1013.16 1013.55 1013.62 1013.43 1013.07 1012.66 1012.30 1012.12 1012.15 1012.37 1012.73 1013.12 1013.44 1013.58 1013.49 1013.16 1012.66 1012.08 1011.53 1011.10 1010.86 1010.83 1010.98 1011.25 1011.58 1011.89 1012.16 1012.36 1012.52 1012.69 1012.89 1013.17 1013.53 1013.95 1014.41 1014.85 1015.26 1015.62 1015.92 1016.18 1016.44 1016.71 1017.00 1017.31 1017.61 1017.88 1018.11
1011.56 1012.44 1013.07 1013.41 1013.48 1013.33 1013.05 1012.76 1012.54 1012.49 1012.63 1012.93 1013.33 1013.73 1014.04 1014.18 1014.11 1013.84 1013.42 1012.94 1012.49 1012.16 1011.98 1011.96 1012.09 1012.29 1012.52 1012.72 1012.86 1012.97 1013.06 1013.18 1013.37 1013.65 1014.02 1014.45 1014.90 1015.34 1015.73 1016.05 1016.32 1016.55 1016.76 1016.98 1017.22 1017.48 1017.73 1017.96 1018.15
1011.53 1012.37 1012.97 1013.31 1013.41 1013.33 1013.16 1012.99 1012.90 1012.96 1013.17 1013.50 1013.90 1014.29 1014.58 1014.71 1014.66 1014.45 1014.13 1013.77 1013.44 1013.21 1013.09 1013.10 1013.20 1013.33 1013.45 1013.53 1013.57 1013.57 1013.59 1013.67 1013.83 1014.10 1014.46 1014.89 1015.34 1015.77 1016.14 1016.44 1016.67 1016.86 1017.02 1017.19 1017.38 1017.57 1017.77 1017.95 1018.10
1011.53 1012.36 1012.97 1013.34 1013.51 1013.52 1013.46 1013.41 1013.42 1013.54 1013.78 1014.10 1014.46 1014.79 1015.03 1015.14 1015.10 1014.95 1014.72 1014.48 1014.27 1014.14 1014.10 1014.13 1014.20 1014.27 1014.31 1014.29 1014.22 1014.14 1014.09 1014.12 1014.25 1014.50 1014.85 1015.26 1015.70 1016.11 1016.46 1016.73 1016.93 1017.08 1017.20 1017.31 1017.44 1017.58 1017.73 1017.87 1017.98
1011.64 1012.50 1013.14 1013.58 1013.83 1013.95 1013.99 1014.03 1014.10 1014.24 1014.45 1014.71 1014.99 1015.23 1015.39 1015.46 1015.43 1015.32 1015.18 1015.03 1014.93 1014.89 1014.91 1014.97 1015.03 1015.05 1015.03 1014.94 1014.80 1014.66 1014.56 1014.54 1014.63 1014.84 1015.16 1015.55 1015.96 1016.34 1016.66 1016.90 1017.07 1017.18 1017.27 1017.35 1017.43 1017.53 1017.64 1017.74 1017.82
1011.93 1012.84 1013.54 1014.06 1014.40 1014.61 1014.74 1014.83 1014.92 1015.04 1015.19 1015.35 1015.50 1015.63 1015.69 1015.70 1015.65 1015.57 1015.48 1015.41 1015.39 1015.41 1015.48 1015.55 1015.61 1015.63 1015.57 1015.45 1015.28 1015.11 1014.98 1014.93 1014.98 1015.15 1015.42 1015.76 1016.12 1016.46 1016.75 1016.96 1017.11 1017.20 1017.26 1017.31 1017.37 1017.45 1017.53 1017.61 1017.67
1012.43 1013.39 1014.15 1014.74 1015.16 1015.45 1015.64 1015.76 1015.84 1015.90 1015.95 1015.99 1016.01 1016.00 1015.97 1015.90 1015.81 1015.72 1015.65 1015.62 1015.64 1015.70 1015.79 1015.88 1015.95 1015.97 1015.93 1015.82 1015.66 1015.50 1015.36 1015.29 1015.32 1015.44 1015.65 1015.92 1016.22 1016.50 1016.75 1016.93 1017.06 1017.15 1017.20 1017.25 1017.30 1017.36 1017.43 1017.50 1017.55
1013.10 1014.09 1014.90 1015.54 1016.03 1016.37 1016.60 1016.73 1016.78 1016.78 1016.72 1016.63 1016.52 1016.39 1016.24 1016.09 1015.95 1015.84 1015.75 1015.72 1015.73 1015.79 1015.88 1015.98 1016.06 1016.11 1016.10 1016.04 1015.94 1015.82 1015.71 1015.64 1015.64 1015.71 1015.86 1016.05 1016.27 1016.50 1016.70 1016.86 1016.99 1017.07 1017.13 1017.19 1017.24 1017.30 1017.37 1017.43 1017.49
1013.86 1014.85 1015.68 1016.35 1016.88 1017.27 1017.52 1017.66 1017.68 1017.60 1017.46 1017.26 1017.03 1016.79 1016.55 1016.32 1016.13 1015.96 1015.84 1015.76 1015.74 1015.76 1015.82 1015.91 1016.00 1016.08 1016.13 1016.15 1016.13 1016.08 1016.03 1015.98 1015.96 1015.98 1016.06 1016.17 1016.32 1016.48 1016.64 1016.79 1016.91 1017.00 1017.08 1017.15 1017.21 1017.28 1017.35 1017.41 1017.47
1014.60 1015.55 1016.37 1017.06 1017.63 1018.05 1018.33 1018.47 1018.47 1018.35 1018.14 1017.85 1017.54 1017.22 1016.90 1016.62 1016.36 1016.14 1015.96 1015.82 1015.73 1015.68 1015.68 1015.74 1015.83 1015.95 1016.06 1016.17 1016.25 1016.29 1016.30 1016.28 1016.25 1016.24 1016.25 1016.29 1016.36 1016.46 1016.59 1016.72 1016.84 1016.95 1017.05 1017.14 1017.22 1017.29 1017.36 1017.42 1017.48
1015.22 1016.10 1016.89 1017.60 1018.19 1018.67 1018.99 1019.15 1019.16 1019.01 1018.75 1018.42 1018.05 1017.67 1017.31 1016.98 1016.68 1016.41 1016.16 1015.94 1015.76 1015.62 1015.55 1015.55 1015.62 1015.76 1015.93 1016.12 1016.29 1016.42 1016.50 1016.52 1016.49 1016.45 1016.40 1016.38 1016.39 1016.44 1016.53 1016.65 1016.79 1016.92 1017.04 1017.15 1017.23 1017.31 1017.38 1017.44 1017.50
1015.63 1016.44 1017.21 1017.93 1018.58 1019.12 1019.51 1019.71 1019.74 1019.59 1019.31 1018.95 1018.54 1018.14 1017.76 1017.40 1017.07 1016.76 1016.45 1016.15 1015.87 1015.63 1015.47 1015.40 1015.44 1015.57 1015.78 1016.03 1016.27 1016.48 1016.61 1016.67 1016.65 1016.58 1016.49 1016.41 1016.37 1016.39 1016.46 1016.58 1016.73 1016.88 1017.03 1017.15 1017.25 1017.32 1017.39 1017.45 1017.51
1015.80 1016.55 1017.33 1018.11 1018.84 1019.47 1019.94 1020.21 1020.27 1020.13 1019.84 1019.45 1019.03 1018.61 1018.21 1017.85 1017.50 1017.16 1016.81 1016.44 1016.08 1015.75 1015.49 1015.33 1015.31 1015.41 1015.62 1015.90 1016.19 1016.44 1016.62 1016.70 1016.69 1016.60 1016.47 1016.36 1016.28 1016.28 1016.34 1016.47 1016.63 1016.81 1016.98 1017.12 1017.23 1017.30 1017.37 1017.42 1017.48
1015.76 1016.50 1017.32 1018.20 1019.05 1019.79 1020.36 1020.70 1020.80 1020.66 1020.35 1019.94 1019.48 1019.04 1018.64 1018.28 1017.94 1017.59 1017.21 1016.81 1016.38 1015.96 1015.61 1015.37 1015.26 1015.31 1015.48 1015.75 1016.05 1016.32 1016.51 1016.60 1016.58 1016.48 1016.34 1016.20 1016.10 1016.08 1016.15 1016.29 1016.47 1016.68 1016.87 1017.03 1017.15 1017.22 1017.28 1017.33 1017.39
1015.59 1016.37 1017.29 1018.30 1019.30 1020.19 1020.86 1021.26 1021.37 1021.22 1020.87 1020.40 1019.90 1019.42 1019.01 1018.65 1018.33 1017.99 1017.62 1017.20 1016.74 1016.26 1015.83 1015.49 1015.30 1015.26 1015.37 1015.59 1015.85 1016.10 1016.29 1016.37 1016.34 1016.23 1016.07 1015.91 1015.81 1015.79 1015.86 1016.02 1016.23 1016.46 1016.68 1016.85 1016.98 1017.06 1017.12 1017.16 1017.22
1015.40 1016.28 1017.35 1018.53 1019.69 1020.71 1021.48 1021.92 1022.02 1021.81 1021.38 1020.83 1020.26 1019.73 1019.29 1018.94 1018.63 1018.34 1018.00 1017.59 1017.12 1016.61 1016.12 1015.70 1015.41 1015.27 1015.29 1015.42 1015.62 1015.82 1015.96 1016.02 1015.97 1015.85 1015.68 1015.52 1015.42 1015.40 1015.48 1015.65 1015.88 1016.13 1016.37 1016.56 1016.70 1016.79 1016.84 1016.89 1016.95
1015.32 1016.33 1017.57 1018.93 1020.25 1021.39 1022.22 1022.67 1022.72 1022.43 1021.89 1021.22 1020.55 1019.95 1019.48 1019.13 1018.85 1018.60 1018.32 1017.95 1017.49 1016.97 1016.44 1015.95 1015.56 1015.32 1015.23 1015.26 1015.36 1015.49 1015.58 1015.60 1015.53 1015.39 1015.21 1015.05 1014.95 1014.93 1015.02 1015.20 1015.43 1015.70 1015.94 1016.14 1016.29 1016.38 1016.44 1016.49 1016.55
1015.43 1016.59 1017.99 1019.51 1020.96 1022.18 1023.03 1023.45 1023.42 1023.01 1022.34 1021.55 1020.77 1020.10 1019.59 1019.23 1018.99 1018.80 1018.57 1018.26 1017.84 1017.33 1016.77 1016.23 1015.76 1015.41 1015.20 1015.12 1015.12 1015.16 1015.19 1015.16 1015.06 1014.90 1014.71 1014.54 1014.43 1014.41 1014.49 1014.66 1014.89 1015.15 1015.39 1015.59 1015.74 1015.83 1015.89 1015.95 1016.02
1015.76 1017.05 1018.59 1020.22 1021.74 1022.99 1023.82 1024.17 1024.04 1023.51 1022.71 1021.79 1020.92 1020.18 1019.63 1019.28 1019.08 1018.94 1018.78 1018.53 1018.15 1017.66 1017.10 1016.51 1015.97 1015.53 1015.21 1015.02 1014.92 1014.88 1014.83 1014.75 1014.61 1014.43 1014.23 1014.04 1013.91 1013.87 1013.92 1014.06 1014.27 1014.50 1014.73 1014.92 1015.05 1015.14 1015.20 1015.26 1015.33
1016.30 1017.67 1019.29 1020.96 1022.49 1023.71 1024.48 1024.74 1024.50 1023.85 1022.95 1021.94 1021.00 1020.22 1019.66 1019.32 1019.15 1019.07 1018.96 1018.77 1018.44 1017.97 1017.40 1016.79 1016.19 1015.67 1015.27 1014.98 1014.79 1014.65 1014.54 1014.40 1014.23 1014.01 1013.79 1013.57 1013.41 1013.33 1013.34 1013.44 1013.60 1013.79 1013.98 1014.14 1014.26 1014.34 1014.39 1014.43 1014.50
1016.97 1018.37 1019.98 1021.61 1023.09 1024.22 1024.89 1025.06 1024.73 1024.00 1023.04 1022.00 1021.03 1020.25 1019.70 1019.39 1019.26 1019.21 1019.15 1018.99 1018.70 1018.25 1017.69 1017.05 1016.42 1015.84 1015.37 1015.00 1014.73 1014.52 1014.34 1014.15 1013.93 1013.68 1013.41 1013.16 1012.96 1012.83 1012.78 1012.82 1012.92 1013.05 1013.19 1013.31 1013.40 1013.45 1013.48 1013.52 1013.58
1017.67 1019.03 1020.55 1022.08 1023.43 1024.44 1025.00 1025.07 1024.68 1023.93 1022.97 1021.95 1021.02 1020.29 1019.78 1019.51 1019.41 1019.39 1019.35 1019.22 1018.94 1018.50 1017.94 1017.30 1016.64 1016.03 1015.50 1015.08 1014.74 1014.47 1014.22 1013.98 1013.71 1013.42 1013.11 1012.81 1012.55 1012.36 1012.25 1012.22 1012.25 1012.32 1012.40 1012.47 1012.52 1012.54 1012.55 1012.57 1012.61
1018.30 1019.54 1020.92 1022.28 1023.46 1024.31 1024.75 1024.76 1024.36 1023.64 1022.75 1021.83 1021.00 1020.35 1019.92 1019.70 1019.63 1019.61 1019.58 1019.44 1019.16 1018.72 1018.16 1017.51 1016.85 1016.22 1015.66 1015.20 1014.81 1014.49 1014.19 1013.89 1013.56 1013.22 1012.86 1012.51 1012.19 1011.94 1011.76 1011.66 1011.63 1011.64 1011.67 1011.69 1011.70 1011.68 1011.66 1011.64 1011.66
1018.78 1019.87 1021.06 1022.20 1023.17 1023.87 1024.21 1024.17 1023.81 1023.18 1022.42 1021.65 1020.97 1020.44 1020.11 1019.93 1019.88 1019.86 1019.80 1019.64 1019.34 1018.89 1018.32 1017.69 1017.03 1016.40 1015.83 1015.33 1014.91 1014.54 1014.19 1013.83 1013.45 1013.04 1012.63 1012.23 1011.87 1011.56 1011.33 1011.18 1011.09 1011.05 1011.03 1011.01 1010.98 1010.93 1010.87 1010.81 1010.78
Thickness
5826 5824 5821 5810 5790 5775 5774 5790 5802 5802 5801 5808 5812 5806 5794 5785 5776 5765 5784 5792 5792 5790 5789 5788 5787 5787 5786 5785 5785 5784 5783 5783 5782 5781 5781 5780 5779 5778 5776 5775 5774 5773 5772 5771 5771 5770 5769 5768 5766
5830 5827 5816 5801 5779 5764 5776 5797 5800 5805 5810 5815 5813 5806 5796 5788 5792 5787 5789 5792 5793 5791 5789 5788 5787 5786 5785 5784 5783 5782 5782 5781 5780 5780 5780 5779 5778 5777 5776 5775 5773 5772 5771 5771 5770 5770 5769 5768 5766
5832 5828 5808 5791 5777 5772 5783 5801 5807 5815 5821 5818 5808 5806 5797 5789 5793 5791 5794 5795 5793 5791 5789 5788 5786 5786 5784 5783 5782 5781 5780 5780 5779 5779 5778 5778 5777 5776 5775 5774 5772 5771 5771 5770 5770 5769 5768 5767 5765
5830 5817 5805 5786 5781 5797 5805 5810 5816 5814 5816 5817 5809 5797 5798 5803 5801 5798 5798 5796 5792 5790 5789 5787 5786 5785 5784 5783 5782 5780 5779 5778 5778 5778 5777 5777 5776 5775 5773 5773 5772 5771 5770 5769 5769 5768 5767 5766 5765
5828 5808 5790 5780 5790 5808 5819 5824 5824 5815 5810 5809 5807 5791 5789 5802 5806 5802 5798 5796 5792 5790 5789 5787 5786 5785 5783 5782 5781 5780 5779 5778 5777 5777 5776 5776 5775 5774 5773 5772 5771 5770 5769 5769 5768 5767 5766 5765 5765
5815 5802 5780 5776 5793 5811 5821 5828 5824 5814 5809 5809 5804 5793 5789 5802 5802 5799 5799 5795 5794 5791 5789 5787 5785 5784 5783 5782 5780 5779 5778 5777 5777 5776 5775 5775 5774 5773 5772 5771 5770 5769 5769 5768 5767 5767 5766 5765 5765
5811 5797 5785 5790 5796 5806 5820 5831 5824 5815 5809 5811 5811 5793 5790 5798 5802 5802 5799 5796 5793 5791 5789 5787 5785 5784 5782 5781 5780 5778 5777 5776 5776 5775 5775 5774 5773 5772 5772 5770 5770 5769 5768 5768 5767 5766 5766 5765 5765
5826 5806 5794 5798 5800 5806 5827 5834 5832 5824 5816 5823 5818 5796 5789 5799 5805 5803 5799 5795 5792 5790 5788 5786 5785 5783 5782 5780 5779 5778 5777 5776 5775 5774 5774 5774 5773 5772 5771 5770 5769 5769 5769 5768 5768 5767 5766 5765 5765
5832 5802 5792 5804 5809 5815 5831 5829 5831 5836 5826 5822 5821 5813 5809 5809 5806 5799 5793 5790 5789 5788 5787 5786 5784 5783 5781 5780 5779 5777 5776 5775 5774 5774 5774 5773 5772 5771 5770 5770 5769 5769 5769 5768 5768 5768 5767 5766 5765
5824 5801 5810 5829 5833 5830 5834 5832 5830 5824 5815 5812 5812 5813 5813 5809 5803 5795 5790 5787 5786 5785 5786 5786 5785 5783 5781 5780 5778 5776 5776 5774 5773 5773 5773 5772 5771 5770 5770 5770 5769 5769 5769 5769 5768 5768 5767 5766 5766
5830 5819 5832 5841 5847 5845 5836 5835 5836 5820 5807 5812 5810 5809 5809 5806 5800 5796 5792 5790 5789 5788 5787 5787 5786 5784 5782 5779 5778 5776 5775 5774 5773 5773 5772 5771 5771 5770 5770 5769 5769 5769 5769 5768 5768 5768 5767 5767 5767
5834 5838 5845 5845 5850 5847 5841 5838 5832 5827 5822 5827 5824 5819 5812 5805 5800 5797 5793 5792 5791 5789 5789 5788 5787 5785 5782 5780 5778 5776 5775 5774 5773 5773 5772 5771 5770 5770 5769 5769 5769 5768 5768 5768 5767 5767 5767 5767 5767
5836 5840 5849 5852 5852 5850 5847 5838 5833 5828 5833 5831 5825 5818 5811 5806 5803 5801 5799 5796 5793 5790 5789 5789 5788 5785 5783 5781 5779 5777 5775 5774 5773 5773 5773 5772 5771 5770 5769 5769 5768 5768 5767 5767 5767 5767 5766 5766 5766
5845 5846 5848 5850 5849 5850 5840 5835 5831 5825 5832 5826 5820 5813 5810 5807 5805 5802 5799 5796 5794 5792 5790 5790 5788 5787 5784 5781 5779 5777 5777 5775 5774 5773 5773 5772 5771 5771 5770 5769 5768 5768 5768 5768 5767 5766 5766 5766 5765
5853 5840 5839 5844 5846 5844 5839 5819 5822 5829 5830 5821 5817 5814 5811 5808 5807 5804 5802 5799 5796 5794 5792 5791 5789 5787 5784 5782 5780 5778 5777 5776 5775 5774 5774 5772 5772 5771 5770 5768 5767 5767 5767 5767 5767 5766 5765 5765 5764
5841 5826 5815 5834 5844 5844 5828 5800 5820 5829 5824 5816 5815 5813 5810 5808 5808 5807 5805 5801 5799 5795 5792 5791 5791 5787 5784 5782 5780 5778 5777 5776 5775 5774 5773 5773 5772 5771 5769 5768 5767 5767 5767 5767 5766 5765 5763 5762 5762
5818 5805 5808 5824 5842 5840 5824 5805 5820 5827 5821 5814 5813 5812 5809 5806 5805 5806 5806 5803 5800 5797 5794 5791 5789 5786 5784 5782 5780 5779 5777 5776 5775 5774 5773 5773 5772 5771 5770 5768 5767 5767 5766 5765 5765 5763 5762 5760 5760
5804 5807 5811 5815 5833 5833 5820 5813 5820 5825 5822 5816 5815 5812 5809 5807 5806 5808 5806 5804 5801 5798 5795 5792 5789 5786 5784 5782 5779 5777 5776 5775 5775 5774 5773 5773 5772 5770 5769 5768 5767 5766 5764 5763 5762 5761 5761 5759 5759
5827 5817 5812 5822 5837 5826 5816 5813 5815 5821 5821 5817 5814 5811 5809 5809 5810 5810 5808 5805 5800 5797 5793 5791 5787 5785 5783 5779 5776 5773 5772 5772 5773 5773 5773 5772 5771 5770 5769 5767 5766 5764 5763 5761 5761 5760 5758 5757 5758
5828 5815 5814 5824 5836 5826 5814 5810 5817 5821 5821 5821 5819 5815 5811 5807 5806 5806 5805 5803 5800 5796 5793 5791 5788 5786 5783 5781 5778 5776 5773 5772 5772 5773 5772 5772 5771 5769 5768 5766 5764 5764 5762 5761 5760 5758 5755 5755 5756
5824 5817 5817 5816 5825 5824 5812 5798 5806 5817 5821 5820 5820 5819 5816 5811 5807 5805 5804 5801 5799 5796 5794 5793 5789 5786 5784 5781 5778 5776 5773 5771 5769 5769 5769 5771 5770 5769 5768 5766 5765 5763 5761 5759 5758 5757 5755 5751 5753
5814 5834 5832 5823 5806 5793 5802 5772 5795 5807 5808 5812 5813 5813 5812 5812 5809 5806 5804 5801 5799 5797 5796 5793 5790 5787 5784 5782 5778 5773 5769 5766 5767 5768 5769 5770 5770 5769 5768 5766 5765 5763 5762 5760 5759 5758 5756 5753 5749
5830 5843 5835 5826 5806 5790 5793 5776 5784 5801 5797 5803 5809 5812 5813 5811 5809 5807 5805 5803 5801 5798 5795 5792 5789 5786 5784 5782 5779 5774 5771 5769 5769 5768 5768 5768 5768 5768 5767 5766 5764 5763 5761 5760 5759 5757 5756 5753 5750
5843 5833 5822 5808 5790 5769 5783 5775 5773 5791 5800 5804 5808 5812 5813 5811 5811 5808 5805 5802 5799 5797 5794 5791 5787 5785 5784 5781 5778 5775 5771 5769 5766 5765 5765 5765 5765 5765 5765 5765 5764 5762 5761 5759 5758 5757 5755 5753 5751
5828 5795 5768 5763 5753 5758 5782 5774 5775 5802 5813 5813 5811 5811 5813 5812 5809 5806 5801 5797 5796 5794 5792 5789 5786 5782 5782 5780 5777 5775 5773 5770 5767 5766 5764 5763 5762 5763 5763 5763 5762 5761 5760 5759 5758 5756 5755 5753 5751
5816 5795 5762 5747 5744 5754 5773 5766 5784 5810 5816 5817 5816 5814 5812 5809 5808 5805 5801 5798 5795 5793 5791 5788 5784 5781 5780 5778 5776 5775 5773 5770 5768 5766 5765 5764 5763 5763 5763 5762 5761 5761 5760 5759 5757 5755 5754 5753 5751
5812 5798 5796 5768 5760 5749 5755 5770 5788 5806 5807 5808 5809 5808 5806 5806 5806 5804 5801 5799 5795 5792 5789 5787 5783 5780 5778 5777 5774 5772 5771 5769 5767 5766 5764 5763 5763 5763 5762 5761 5760 5759 5758 5757 5756 5753 5752 5751 5749
5823 5810 5782 5763 5744 5736 5747 5755 5762 5782 5789 5795 5798 5800 5802 5803 5801 5799 5798 5796 5794 5792 5789 5787 5783 5779 5777 5775 5772 5771 5768 5767 5765 5763 5762 5761 5761 5761 5760 5759 5758 5757 5756 5755 5753 5752 5751 5748 5747
5808 5801 5781 5760 5754 5735 5728 5746 5787 5787 5791 5790 5791 5795 5797 5797 5797 5796 5793 5792 5791 5790 5787 5784 5780 5777 5774 5772 5770 5767 5765 5764 5762 5760 5760 5759 5759 5758 5757 5756 5755 5754 5753 5752 5750 5748 5748 5746 5744
5813 5801 5781 5758 5752 5744 5734 5748 5798 5795 5794 5792 5791 5792 5792 5793 5792 5791 5790 5787 5785 5784 5783 5780 5778 5775 5772 5770 5767 5764 5763 5760 5759 5758 5758 5757 5756 5755 5755 5753 5752 5751 5750 5749 5746 5745 5744 5742 5741